Change the Weather History Date:

Saturday, December 10, 2011

  Actual Average (KPBG) Record (KPBG)
Temperature  
Mean Temperature 32 °F 27 °F  
Max Temperature 35 °F 35 °F 54 °F (1966)
Min Temperature 30 °F 19 °F -8 °F (1976)
Degree Days  
Heating Degree Days 32 38  
Month to date heating degree days 364  
Since 1 July heating degree days 1998  
Cooling Degree Days 0 0  
Month to date cooling degree days 0  
Year to date cooling degree days 346  
Moisture  
Dew Point 24 °F    
Average Humidity 75    
Maximum Humidity 100    
Minimum Humidity 55    
Precipitation  
Precipitation 0.00 in - 0.40 in (1975)
Month to date precipitation  
Year to date precipitation  
Sea Level Pressure  
Sea Level Pressure 30.24 in    
Wind  
Wind Speed 4 mph (WNW)    
Max Wind Speed 9 mph    
Max Gust Speed -    
Visibility 10 miles    
Events Snow    
T = Trace of Precipitation, MM = Missing Value Source: NWS Daily Summary

Daily Weather History Graph

Daily Weather History Graph

Search for Another Location

Airport or City:

Trip Planner

Search our weather history database for the weather conditions in past years. The results will help you decide how hot, cold, wet, or windy it might be!

Date:

Astronomy

Dec. 10, 2011 Rise Set
Actual Time 7:19 AM EST 4:10 PM EST
Civil Twilight 6:45 AM EST 4:44 PM EST
Nautical Twilight 6:08 AM EST 5:21 PM EST
Astronomical Twilight 5:33 AM EST 5:57 PM EST
Moon 4:21 PM EST (12/10) 7:17 AM EST (12/10)
Length of Visible Light 9h 58m
Length of Day
8h 51m
Full, 100% of the Moon is Illuminated
Dec 10
Full
Dec 17
Last Quarter
Dec 24
New
Jan 1
First Quarter
Jan 9
Full

Hourly Weather History & Observations

Time (EST) Temp. Windchill Dew Point Humidity Pressure Visibility Wind Dir Wind Speed Gust Speed Precip Events Conditions
12:15 AM 35.6 °F - 32.0 °F 87% 30.13 in 10.0 mi Calm Calm - N/A   Overcast
12:35 AM 35.6 °F 32.8 °F 32.0 °F 87% 30.12 in 10.0 mi West 3.5 mph - N/A   Overcast
12:55 AM 35.6 °F 31.7 °F 32.0 °F 87% 30.12 in 10.0 mi WNW 4.6 mph - N/A Snow Light Snow
1:15 AM 35.6 °F 32.8 °F 32.0 °F 87% 30.12 in 10.0 mi WNW 3.5 mph - N/A   Overcast
1:35 AM 33.8 °F 29.6 °F 30.2 °F 87% 30.13 in 10.0 mi WNW 4.6 mph - N/A Snow Light Snow
1:55 AM 33.8 °F 29.6 °F 30.2 °F 87% 30.13 in 10.0 mi WNW 4.6 mph - N/A   Overcast
2:15 AM 33.8 °F - 30.2 °F 87% 30.14 in 10.0 mi Calm Calm - N/A   Overcast
2:35 AM 33.8 °F - 32.0 °F 93% 30.15 in 10.0 mi Calm Calm - N/A   Overcast
2:55 AM 33.8 °F - 32.0 °F 93% 30.15 in 10.0 mi Calm Calm - N/A   Overcast
3:15 AM 33.8 °F 27.7 °F 32.0 °F 93% 30.16 in 10.0 mi West 6.9 mph - N/A Snow Light Snow
3:35 AM 33.8 °F 27.7 °F 32.0 °F 93% 30.17 in 2.5 mi WNW 6.9 mph - N/A Snow Light Snow
3:55 AM 30.2 °F 25.4 °F 30.2 °F 100% 30.18 in 2.0 mi WNW 4.6 mph - N/A Snow Light Snow
4:15 AM 30.2 °F 22.6 °F 28.4 °F 93% 30.18 in 7.0 mi NW 8.1 mph - N/A Snow Light Snow
4:35 AM 30.2 °F 23.4 °F 28.4 °F 93% 30.18 in 7.0 mi WNW 6.9 mph - N/A Snow Light Snow
4:55 AM 30.2 °F 24.3 °F 26.6 °F 86% 30.19 in 10.0 mi WNW 5.8 mph - N/A   Overcast
5:15 AM 30.2 °F 24.3 °F 26.6 °F 86% 30.19 in 10.0 mi NW 5.8 mph - N/A   Overcast
5:35 AM 30.2 °F 23.4 °F 24.8 °F 80% 30.20 in 10.0 mi WNW 6.9 mph - N/A   Overcast
5:55 AM 30.2 °F 24.3 °F 24.8 °F 80% 30.22 in 10.0 mi NW 5.8 mph - N/A   Overcast
6:35 AM 30.2 °F - 23.0 °F 75% 30.24 in 10.0 mi Calm Calm - N/A   Overcast
6:55 AM 30.2 °F - 23.0 °F 75% 30.25 in 10.0 mi Calm Calm - N/A   Overcast
7:15 AM 30.2 °F - 24.8 °F 80% 30.26 in 10.0 mi Calm Calm - N/A   Overcast
7:35 AM 30.2 °F - 26.6 °F 86% 30.26 in 10.0 mi Calm Calm - N/A   Overcast
7:55 AM 30.2 °F - 26.6 °F 86% 30.27 in 10.0 mi Calm Calm - N/A   Mostly Cloudy
8:15 AM 30.2 °F 26.7 °F 24.8 °F 80% 30.27 in 10.0 mi WNW 3.5 mph - N/A   Scattered Clouds
8:35 AM 30.2 °F - 23.0 °F 75% 30.28 in 10.0 mi Calm Calm - N/A   Clear
8:55 AM 30.2 °F 25.4 °F 23.0 °F 75% 30.28 in 10.0 mi West 4.6 mph - N/A   Clear
9:15 AM 30.2 °F 26.7 °F 23.0 °F 75% 30.29 in 10.0 mi WNW 3.5 mph - N/A   Clear
9:35 AM 30.2 °F 25.4 °F 23.0 °F 75% 30.29 in 10.0 mi West 4.6 mph - N/A   Scattered Clouds
9:55 AM 30.2 °F 26.7 °F 23.0 °F 75% 30.29 in 10.0 mi West 3.5 mph - N/A   Mostly Cloudy
10:15 AM 32.0 °F 27.5 °F 23.0 °F 69% 30.29 in 10.0 mi West 4.6 mph - N/A   Scattered Clouds
10:35 AM 33.8 °F - 24.8 °F 70% 30.29 in 10.0 mi Calm Calm - N/A   Mostly Cloudy
10:55 AM 32.0 °F 25.6 °F 23.0 °F 69% 30.28 in 10.0 mi West 6.9 mph - N/A   Mostly Cloudy
11:15 AM 33.8 °F 27.7 °F 23.0 °F 65% 30.28 in 10.0 mi WSW 6.9 mph - N/A   Scattered Clouds
11:35 AM 33.8 °F 27.7 °F 23.0 °F 65% 30.28 in 10.0 mi WNW 6.9 mph - N/A   Scattered Clouds
11:55 AM 32.0 °F 26.4 °F 21.2 °F 64% 30.27 in 10.0 mi West 5.8 mph - N/A   Mostly Cloudy
12:15 PM 33.8 °F 28.6 °F 21.2 °F 60% 30.26 in 10.0 mi WNW 5.8 mph - N/A   Overcast
12:35 PM 33.8 °F 26.4 °F 23.0 °F 65% 30.27 in 10.0 mi NNW 9.2 mph - N/A   Overcast
12:55 PM 32.0 °F 27.5 °F 23.0 °F 69% 30.27 in 10.0 mi WNW 4.6 mph - N/A   Overcast
1:15 PM 32.0 °F 26.4 °F 23.0 °F 69% 30.27 in 10.0 mi NW 5.8 mph - N/A   Scattered Clouds
1:35 PM 32.0 °F 26.4 °F 23.0 °F 69% 30.27 in 10.0 mi NNW 5.8 mph - N/A   Mostly Cloudy
1:55 PM 33.8 °F 29.6 °F 24.8 °F 70% 30.27 in 10.0 mi NNW 4.6 mph - N/A   Mostly Cloudy
2:15 PM 33.8 °F 27.7 °F 23.0 °F 65% 30.27 in 10.0 mi NW 6.9 mph - N/A   Mostly Cloudy
2:35 PM 33.8 °F 27.7 °F 21.2 °F 60% 30.27 in 10.0 mi WNW 6.9 mph - N/A   Scattered Clouds
2:55 PM 32.0 °F 27.5 °F 19.4 °F 60% 30.28 in 10.0 mi West 4.6 mph - N/A   Clear
3:15 PM 32.0 °F 25.6 °F 17.6 °F 55% 30.29 in 10.0 mi West 6.9 mph - N/A   Mostly Cloudy
3:35 PM 32.0 °F 26.4 °F 17.6 °F 55% 30.28 in 10.0 mi WNW 5.8 mph - N/A   Overcast
3:55 PM 32.0 °F 25.6 °F 17.6 °F 55% 30.29 in 10.0 mi WNW 6.9 mph - N/A   Mostly Cloudy
4:15 PM 30.2 °F 25.4 °F 17.6 °F 60% 30.30 in 10.0 mi West 4.6 mph - N/A   Mostly Cloudy
4:35 PM 30.2 °F 25.4 °F 19.4 °F 64% 30.30 in 10.0 mi West 4.6 mph - N/A   Overcast
4:55 PM 30.2 °F 23.4 °F 17.6 °F 60% 30.31 in 10.0 mi West 6.9 mph - N/A   Scattered Clouds
5:15 PM 30.2 °F - 17.6 °F 60% 30.31 in 10.0 mi Calm Calm - N/A   Scattered Clouds
5:35 PM 30.2 °F 25.4 °F 19.4 °F 64% 30.32 in 10.0 mi West 4.6 mph - N/A   Scattered Clouds
6:15 PM 30.2 °F 25.4 °F 19.4 °F 64% 30.33 in 10.0 mi West 4.6 mph - N/A   Scattered Clouds
6:35 PM 30.2 °F 24.3 °F 19.4 °F 64% 30.33 in 10.0 mi West 5.8 mph - N/A   Clear
6:55 PM 30.2 °F 25.4 °F 19.4 °F 64% 30.33 in 10.0 mi West 4.6 mph - N/A   Mostly Cloudy
7:15 PM 30.2 °F 25.4 °F 21.2 °F 69% 30.34 in 10.0 mi West 4.6 mph - N/A   Overcast
7:35 PM 30.2 °F 24.3 °F 21.2 °F 69% 30.35 in 10.0 mi West 5.8 mph - N/A   Overcast
7:55 PM 30.2 °F 25.4 °F 21.2 °F 69% 30.35 in 10.0 mi West 4.6 mph - N/A   Overcast
8:15 PM 30.2 °F 24.3 °F 21.2 °F 69% 30.36 in 10.0 mi West 5.8 mph - N/A   Overcast
8:35 PM 30.2 °F 26.7 °F 23.0 °F 75% 30.36 in 10.0 mi West 3.5 mph - N/A   Scattered Clouds
8:55 PM 30.2 °F 25.4 °F 23.0 °F 75% 30.36 in 10.0 mi WSW 4.6 mph - N/A   Clear
9:15 PM 30.2 °F 25.4 °F 21.2 °F 69% 30.36 in 10.0 mi WSW 4.6 mph - N/A   Clear
9:35 PM 30.2 °F 24.3 °F 21.2 °F 69% 30.37 in 10.0 mi WSW 5.8 mph - N/A   Scattered Clouds
9:55 PM 30.2 °F 25.4 °F 21.2 °F 69% 30.38 in 10.0 mi West 4.6 mph - N/A   Mostly Cloudy
10:15 PM 30.2 °F 26.7 °F 21.2 °F 69% 30.38 in 10.0 mi West 3.5 mph - N/A   Overcast
10:35 PM 30.2 °F 24.3 °F 21.2 °F 69% 30.38 in 10.0 mi WSW 5.8 mph - N/A   Overcast
10:55 PM 30.2 °F 23.4 °F 21.2 °F 69% 30.39 in 10.0 mi West 6.9 mph - N/A   Overcast
11:15 PM 30.2 °F 24.3 °F 21.2 °F 69% 30.40 in 10.0 mi West 5.8 mph - N/A   Overcast
11:35 PM 30.2 °F 24.3 °F 19.4 °F 64% 30.40 in 10.0 mi West 5.8 mph - N/A   Overcast
11:55 PM 30.2 °F 24.3 °F 19.4 °F 64% 30.40 in 10.0 mi West 5.8 mph - N/A   Overcast